[[[{"header":{"parameterUnit":"kt","parameterCategory":2,"dx":1,"dy":1,"la1":30.253999710083008,"la2":30.299108505249023,"lo1":-89.0895004272461,"lo2":-89.04439544677734,"nx":28,"ny":28,"refTime":"2022-10-19T09:00:00:Z","depth":0,"parameterNumber":1,"parameterNumberName":"U-component_of_WINDS"},"data":[-1.9691,-1.9899,-1.9899,-2.0137,-2.0176,-2.034,-2.0399,-2.0475,-2.0535,-2.0731,-2.0844,-2.0865,-2.0927,-2.1063,-2.1186,-2.1194,-2.1251,-2.1323,-2.1322,-2.099,-2.0945,-2.0902,-2.0856,-2.1332,-2.1333,-2.1669,-2.1672,-2.1675,-1.9447,-1.9488,-1.9612,-1.9734,-1.9842,-1.977,-1.9861,-1.9958,-2.0106,-2.0181,-2.0292,-2.0465,-2.0602,-2.064,-2.0773,-2.0872,-2.0851,-2.0909,-2.0908,-2.0921,-2.0563,-2.0514,-2.0925,-2.0925,-2.0925,-2.0925,-2.0925,-2.0925,-1.9004,-1.9128,-1.9202,-1.9338,-1.9398,-1.948,-1.9599,-1.9622,-1.9746,-1.9883,-1.9858,-2.0027,-2.0105,-2.0265,-2.0319,-2.0452,-2.0389,-2.0455,-2.0475,-2.0495,-2.0519,-2.0047,-2.0473,-2.0472,-2.0471,-2.047,-2.0469,0,-1.8684,-1.8675,-1.8795,-1.8915,-1.9014,-1.9107,-1.9193,-1.9266,-1.925,-1.9353,-1.9502,-1.9589,-1.9759,-1.9903,-2.0027,-2.007,-2.0017,-2.0006,-2.0055,-2.0077,-2.0079,-2.009,-1.9517,-1.9998,-1.9994,-1.9991,-1.9989,-1.9987,-1.8247,-1.8389,-1.8465,-1.855,-1.8597,-1.8732,-1.8814,-1.8789,-1.8877,-1.898,-1.9092,-1.9231,-1.9345,-1.9585,-1.9616,-1.9745,-1.9722,-1.9906,-1.9742,-1.9753,-1.9737,-1.9734,-1.9751,-1.9944,-1.9949,-1.9954,-1.9957,0,-1.8003,-1.8002,-1.8223,-1.8285,-1.8304,-1.8456,-1.8511,-1.8633,-1.8643,-1.8815,-1.8853,-1.8872,-1.902,-1.902,-1.9189,-1.9186,-1.9443,-1.941,-1.9416,-1.9414,-1.9587,-1.9575,-2.013,-2.0204,-1.9698,-1.9702,-1.9706,0,-1.7635,-1.7823,-1.7812,-1.7941,-1.8148,-1.8119,-1.8326,-1.8356,-1.8421,-1.8556,-1.8488,-1.8617,-1.8596,-1.8725,-1.872,-1.8928,-1.8957,-1.8971,-1.897,-1.8984,-1.8984,-1.9042,-1.9023,-1.8949,-1.8946,-1.8943,-1.8941,0,-1.7262,-1.7473,-1.7679,-1.7729,-1.7816,-1.7914,-1.7955,-1.8028,-1.811,-1.8213,-1.8267,-1.839,-1.8461,-1.8557,-1.8552,-1.8441,-1.8803,-1.865,-1.8819,-1.882,-1.8909,-1.8906,-1.9385,-1.8938,-1.8937,-1.8936,-1.8935,0,-1.697,-1.7073,-1.737,-1.7442,-1.75,-1.7635,-1.7756,-1.7871,-1.7953,-1.7959,-1.8041,-1.8,-1.8175,-1.8024,-1.8269,-1.8127,-1.82,-1.8227,-1.8239,-1.8266,-1.81,-1.8384,-1.8831,-1.8884,-1.8275,-1.827,-1.8265,0,-1.6547,-1.6845,-1.6824,-1.7107,-1.7246,-1.7164,-1.7314,-1.7388,-1.7408,-1.7531,-1.7551,-1.7693,-1.7579,-1.7625,-1.7743,-1.7775,-1.7958,-1.7748,-1.7937,-1.7944,-1.7928,-1.8336,-1.8409,-1.873,-1.8194,-1.8201,-1.8207,0,-1.6221,-1.6324,-1.6376,-1.6433,-1.6525,-1.6642,-1.6811,-1.6944,-1.7028,-1.7116,-1.7264,-1.7456,-1.7382,-1.7457,-1.7438,-1.7563,-1.7833,-1.7467,-1.7469,-1.7541,-1.8155,-1.8224,-1.8278,-1.7793,-1.7801,-1.7808,-1.815,0,-1.5795,-1.5943,-1.6081,-1.6207,-1.6294,-1.647,-1.6471,-1.6564,-1.6535,-1.6554,-1.6766,-1.6829,-1.6968,-1.7025,-1.7,-1.7283,-1.7239,-1.7157,-1.702,-1.7284,-1.7398,-1.7444,-1.685,-1.6846,-1.6842,-1.6839,0,0,-1.5397,-1.561,-1.5582,-1.5746,-1.5821,-1.5735,-1.5924,-1.5986,-1.6115,-1.617,-1.6089,-1.6376,-1.6432,-1.6692,-1.6774,-1.6827,-1.6881,-1.6789,-1.7156,-1.7191,-1.7224,-1.7346,-1.7393,-1.6833,-1.6832,-1.6831,-1.683,0,-1.5244,-1.5296,-1.548,-1.5542,-1.5634,-1.5644,-1.5687,-1.5765,-1.5787,-1.5992,-1.5925,-1.6052,-1.628,-1.6352,-1.6418,-1.6753,-1.6701,-1.6793,-1.6977,-1.7121,-1.7161,-1.7196,-1.7323,-1.7368,-1.6821,-1.6822,-1.6822,0,-1.4931,-1.4986,-1.5074,-1.5234,-1.5294,-1.5439,-1.5291,-1.5449,-1.5558,-1.5463,-1.567,-1.5707,-1.5801,-1.6043,-1.6151,-1.6084,-1.6537,-1.6392,-1.6414,-1.643,-1.657,-1.6618,-1.666,-1.6102,-1.6099,-1.6097,0,0,-1.48,-1.4936,-1.499,-1.5201,-1.5243,-1.5261,-1.5338,-1.5319,-1.5403,-1.5438,-1.5486,-1.5572,-1.5705,-1.5793,-1.5918,-1.6181,-1.6204,-1.6303,-1.6337,-1.6365,-1.6396,-1.6543,-1.659,-1.6087,-1.6087,-1.6087,0,0,-1.4739,-1.481,-1.4766,-1.5011,-1.5091,-1.5162,-1.5293,-1.5243,-1.5355,-1.5337,-1.5316,-1.5338,-1.5564,-1.5604,-1.5475,-1.5871,-1.5733,-1.5764,-1.5839,-1.5882,-1.5915,-1.5906,-1.534,0,0,0,0,0,-1.4586,-1.48,-1.476,-1.4801,-1.5006,-1.5183,-1.5209,-1.5196,-1.5099,-1.5202,-1.5234,-1.517,-1.5531,-1.5416,-1.5459,-1.5606,-1.5965,-1.5987,-1.6007,-1.6166,-1.621,-1.6248,0,0,0,0,0,0,-1.4602,-1.4653,-1.4754,-1.4833,-1.4879,-1.5175,-1.5008,-1.501,-1.5087,-1.5072,-1.5165,-1.5172,-1.5166,-1.5394,-1.5433,-1.5573,-1.5327,-1.5973,-1.5992,-1.6008,-1.6181,-1.6218,-1.6249,0,0,0,0,0,-1.4615,-1.4655,-1.4987,-1.483,-1.487,-1.4903,-1.5,-1.5001,-1.506,-1.5111,-1.5116,-1.5043,-1.517,-1.5203,-1.5417,-1.5555,-1.53,-1.5315,-1.5985,-1.6,-1.6013,-1.6199,0,0,0,0,0,0,-1.4624,-1.4659,-1.4994,-1.5006,-1.4749,-1.4886,-1.4907,-1.4992,-1.5094,-1.5101,-1.4987,-1.4974,-1.5176,-1.52,-1.5225,-1.555,-1.5278,-1.5293,-1.5302,-1.5996,-1.6008,-1.6018,0,0,0,0,0,0,-1.4637,-1.4669,-1.5001,-1.4898,-1.4898,-1.4871,-1.489,-1.5069,-1.5097,-1.4965,-1.4956,-1.498,-1.514,-1.5199,-1.5218,-1.55,-1.5261,-1.5275,-1.5285,-1.5291,-1.6006,-1.6015,0,0,0,0,0,0,-1.465,-1.4678,-1.4895,-1.4895,-1.4895,-1.5026,-1.503,-1.5241,-1.5006,-1.4962,-1.4984,-1.4975,-1.5141,-1.516,-1.5214,-1.5488,-1.5497,-1.5262,-1.5271,-1.5278,-1.5283,0,0,0,0,0,0,0,-1.4661,-1.4476,-1.4925,-1.4893,-1.4892,-1.5115,-1.5118,-1.5121,-1.5004,-1.4995,-1.4987,-1.4979,-1.518,-1.5196,-1.5211,-1.5479,0,0,-1.526,-1.5267,0,0,0,0,0,0,0,0,-1.4464,-1.4473,-1.4925,-1.4927,-1.493,-1.5115,-1.5118,-1.5121,-1.5002,-1.4995,-1.4988,-1.4982,-1.5184,-1.5197,-1.521,0,0,0,0,0,0,0,0,0,0,0,0,0,0,0,-1.4925,-1.4927,0,-1.5116,-1.5118,-1.512,-1.5001,-1.4996,-1.499,-1.4985,-1.5188,-1.5198,-1.5209,0,0,0,0,0,0,0,0,0,0,0,0,0,0,0,0,0,0,0,0,0,0,0,0,0,0,0,0,0,0,0,0,0,0,0,0,0,0,0,0,0,0,0,0,0,0,0,0,0,0,0,0,0,0,0,0,0,0,0,0,0,0,0,0,0,0,0,0,0]}],[{"header":{"parameterUnit":"kt","parameterCategory":2,"dx":1,"dy":1,"la1":30.253999710083008,"la2":30.299108505249023,"lo1":-89.0895004272461,"lo2":-89.04439544677734,"nx":28,"ny":28,"refTime":"2022-10-19T09:00:00:Z","depth":0,"parameterNumber":2,"parameterNumberName":"V-component_of_WINDS"},"data":[-15.3844,-15.419,-15.419,-15.4582,-15.4646,-15.4912,-15.5006,-15.5126,-15.522,-15.5533,-15.5711,-15.5739,-15.5827,-15.6035,-15.6224,-15.6231,-15.6312,-15.6437,-15.6424,-15.5872,-15.5795,-15.5721,-15.5641,-15.6454,-15.6455,-15.6996,-15.7001,-15.7005,-15.3439,-15.3508,-15.3716,-15.3915,-15.4092,-15.3971,-15.4117,-15.4271,-15.4511,-15.4629,-15.4804,-15.5077,-15.529,-15.5335,-15.5538,-15.5694,-15.5647,-15.575,-15.5738,-15.5753,-15.5163,-15.5078,-15.5785,-15.5785,-15.5785,-15.5784,-15.5784,-15.5784,-15.2701,-15.2909,-15.3029,-15.3254,-15.3353,-15.3485,-15.3681,-15.3713,-15.3913,-15.4129,-15.4082,-15.4351,-15.4464,-15.4704,-15.4782,-15.4988,-15.4872,-15.4982,-15.5009,-15.5038,-15.5072,-15.4293,-15.5021,-15.5019,-15.5017,-15.5015,-15.5014,0,-15.216,-15.2145,-15.2344,-15.2543,-15.2706,-15.2858,-15.2996,-15.3116,-15.3075,-15.3241,-15.348,-15.3616,-15.3882,-15.4103,-15.429,-15.4348,-15.4235,-15.4221,-15.4297,-15.4326,-15.4327,-15.4331,-15.337,-15.42,-15.4193,-15.4188,-15.4184,-15.4182,-15.1417,-15.1659,-15.1782,-15.1922,-15.1997,-15.2222,-15.2355,-15.2301,-15.2443,-15.2602,-15.2785,-15.3006,-15.3181,-15.3559,-15.3587,-15.3785,-15.3731,-15.4049,-15.376,-15.3777,-15.3737,-15.3724,-15.3748,-15.4107,-15.4117,-15.4124,-15.4131,0,-15.0998,-15.0992,-15.1366,-15.1462,-15.1493,-15.1748,-15.1828,-15.203,-15.2037,-15.2316,-15.2378,-15.2388,-15.2621,-15.2598,-15.2857,-15.2837,-15.3252,-15.3194,-15.3213,-15.32,-15.3483,-15.3458,-15.4405,-15.4526,-15.3681,-15.3689,-15.3696,0,-15.0361,-15.0681,-15.0652,-15.087,-15.1222,-15.1159,-15.1508,-15.1548,-15.1646,-15.1865,-15.1734,-15.1941,-15.1878,-15.2082,-15.2053,-15.2387,-15.2435,-15.2439,-15.2428,-15.2453,-15.2453,-15.2526,-15.2487,-15.2392,-15.2387,-15.2383,-15.2379,0,-14.9708,-15.0066,-15.0419,-15.0499,-15.0632,-15.0798,-15.086,-15.0968,-15.1097,-15.126,-15.1343,-15.1537,-15.1643,-15.1793,-15.1755,-15.156,-15.2162,-15.1885,-15.2167,-15.2169,-15.2302,-15.2295,-15.3139,-15.2373,-15.2372,-15.237,-15.2368,0,-14.9192,-14.9364,-14.9876,-14.9983,-15.0079,-15.031,-15.0498,-15.0691,-15.0814,-15.0811,-15.0938,-15.0847,-15.1137,-15.0865,-15.1262,-15.1019,-15.113,-15.116,-15.118,-15.1205,-15.0901,-15.1382,-15.2187,-15.227,-15.1227,-15.1217,-15.1209,0,-14.8446,-14.8961,-14.8911,-14.9398,-14.9633,-14.947,-14.9725,-14.9838,-14.9856,-15.0054,-15.0071,-15.0297,-15.0089,-15.0156,-15.0355,-15.0382,-15.0698,-15.0338,-15.062,-15.0631,-15.0595,-15.1335,-15.1462,-15.2013,-15.1087,-15.1099,-15.1109,0,-14.7867,-14.8028,-14.8119,-14.8207,-14.8349,-14.8544,-14.8836,-14.9048,-14.9183,-14.9323,-14.9565,-14.988,-14.9736,-14.9849,-14.9794,-15.0003,-15.0482,-14.982,-14.9821,-14.9941,-15.1023,-15.1142,-15.1235,-15.0398,-15.0413,-15.0424,-15.1012,0,-14.7091,-14.7347,-14.7591,-14.7791,-14.7938,-14.8241,-14.8219,-14.8375,-14.8309,-14.8321,-14.8676,-14.876,-14.8973,-14.907,-14.9007,-14.9494,-14.9409,-14.9252,-14.8985,-14.9471,-14.9664,-14.9742,-14.87,-14.8692,-14.8685,-14.8679,0,0,-14.6379,-14.6745,-14.6681,-14.6965,-14.7085,-14.6911,-14.7237,-14.7332,-14.753,-14.7615,-14.7466,-14.7925,-14.8,-14.8433,-14.8582,-14.8668,-14.8752,-14.8583,-14.924,-14.9302,-14.936,-14.9567,-14.9649,-14.8667,-14.8665,-14.8663,-14.866,0,-14.6092,-14.6179,-14.6503,-14.66,-14.6741,-14.6738,-14.6816,-14.6924,-14.6947,-14.7294,-14.7144,-14.7353,-14.7721,-14.7821,-14.792,-14.8531,-14.8404,-14.8596,-14.8934,-14.9172,-14.9244,-14.9307,-14.9525,-14.9604,-14.8644,-14.8645,-14.8646,0,-14.5518,-14.56,-14.5754,-14.602,-14.611,-14.6354,-14.607,-14.634,-14.6519,-14.6312,-14.666,-14.6704,-14.6834,-14.7247,-14.743,-14.7299,-14.8089,-14.7835,-14.7877,-14.7897,-14.8126,-14.8212,-14.8289,-14.7279,-14.7274,-14.727,0,0,-14.5272,-14.551,-14.5579,-14.5956,-14.6024,-14.6024,-14.6151,-14.6099,-14.6222,-14.6273,-14.6327,-14.645,-14.6661,-14.6803,-14.7001,-14.7457,-14.7478,-14.7668,-14.7732,-14.7785,-14.7834,-14.8077,-14.8162,-14.7253,-14.7252,-14.7252,0,0,-14.5153,-14.525,-14.5162,-14.5598,-14.5723,-14.5813,-14.6043,-14.5937,-14.6114,-14.6076,-14.5996,-14.6026,-14.641,-14.6459,-14.6227,-14.6905,-14.6641,-14.6696,-14.686,-14.6941,-14.7004,-14.6984,-14.5945,0,0,0,0,0,-14.4849,-14.5237,-14.5157,-14.5227,-14.5561,-14.5858,-14.59,-14.5845,-14.566,-14.5844,-14.5871,-14.5728,-14.6317,-14.611,-14.6179,-14.6438,-14.7027,-14.7067,-14.7105,-14.7423,-14.7508,-14.7579,0,0,0,0,0,0,-14.4876,-14.4962,-14.5146,-14.5255,-14.5329,-14.5844,-14.5518,-14.5514,-14.5639,-14.5607,-14.5727,-14.5731,-14.5688,-14.6071,-14.6134,-14.6381,-14.5924,-14.7043,-14.7077,-14.7107,-14.7452,-14.7521,-14.7581,0,0,0,0,0,-14.4897,-14.4966,-14.5516,-14.5249,-14.5313,-14.5334,-14.5503,-14.5497,-14.5592,-14.5636,-14.5636,-14.554,-14.5697,-14.5745,-14.6108,-14.6354,-14.588,-14.5904,-14.7065,-14.7092,-14.7115,-14.7486,0,0,0,0,0,0,-14.4913,-14.4961,-14.5528,-14.5545,-14.5098,-14.5304,-14.5334,-14.5483,-14.5612,-14.5616,-14.5443,-14.5417,-14.5708,-14.5743,-14.5782,-14.6348,-14.5844,-14.5868,-14.5883,-14.7085,-14.7106,-14.7125,0,0,0,0,0,0,-14.4923,-14.4978,-14.5537,-14.535,-14.5345,-14.5277,-14.5304,-14.5603,-14.5616,-14.5411,-14.5392,-14.543,-14.5648,-14.5744,-14.5773,-14.6242,-14.5817,-14.584,-14.5856,-14.5866,-14.7102,-14.7119,0,0,0,0,0,0,-14.4945,-14.4991,-14.5345,-14.5342,-14.5337,-14.5528,-14.5538,-14.5883,-14.546,-14.5408,-14.542,-14.5401,-14.5654,-14.5681,-14.5768,-14.6226,-14.6238,-14.5818,-14.5833,-14.5844,-14.5852,0,0,0,0,0,0,0,-14.4963,-14.4667,-14.5425,-14.5335,-14.533,-14.5707,-14.5712,-14.5716,-14.5456,-14.544,-14.5424,-14.5409,-14.5686,-14.5711,-14.5736,-14.6213,0,0,-14.5815,-14.5826,0,0,0,0,0,0,0,0,-14.4647,-14.4662,-14.5426,-14.5429,-14.5433,-14.5708,-14.5712,-14.5715,-14.5453,-14.544,-14.5427,-14.5415,-14.5692,-14.5713,-14.5733,0,0,0,0,0,0,0,0,0,0,0,0,0,0,0,-14.5426,-14.5429,0,-14.5708,-14.5711,-14.5715,-14.5451,-14.544,-14.543,-14.542,-14.5698,-14.5715,-14.5732,0,0,0,0,0,0,0,0,0,0,0,0,0,0,0,0,0,0,0,0,0,0,0,0,0,0,0,0,0,0,0,0,0,0,0,0,0,0,0,0,0,0,0,0,0,0,0,0,0,0,0,0,0,0,0,0,0,0,0,0,0,0,0,0,0,0,0,0,0]}]]]